Location: Poughquag
(41.6090°N, 73.6820°W)
Time: 02:19:28
(UTC-04:00)

Altair - Pass Details

Date: 06 June 2020
Orbit: 1501 x 1683 km, 47.2° (Epoch: 06 July)

Event Time Altitude Azimuth Distance (km) Brightness Sun altitude
Rises 00:18:45 0° 277° (W) 4,862 10.3 -25.2°
Reaches altitude 10° 00:21:55 10° 281° (W) 3,895 9.8 -25.3°
Maximum altitude 00:31:54 64° 2° (N) 1,827 8.0 -25.5°
Drops below altitude 10° 00:42:01 10° 84° (E) 3,944 9.7 -25.6°
Sets 00:45:15 0° 87° (E) 4,926 10.2 -25.7°
